User: anonymous   Login
Location: Unspecified
(0.0000°N, 0.0000°E)
Time: 22:09:29
(UTC+01:00)
Language:

Cosmos 494 Rocket - Orbit

View from above orbital plane
View from above orbital plane
View from above satellite
View from above satellite

Ground track
Ground track

The orbit data is extracted from the following two-line orbital elements,

1 06061U 72043B   15057.79454563  .00000184  00000-0  66417-4 0  9991
2 06061 074.0570 293.9490 0021109 275.0617 084.8129 14.40307739237164
Epoch (UTC): 26 February 2015 19:04:08
Eccentricity: 0.0021109
inclination: 74.0570°
perigee height: 742 km
apogee height: 772 km
right ascension of ascending node: 293.9490°
argument of perigee: 275.0617°
revolutions per day: 14.40307739
mean anomaly at epoch: 84.8129°
orbit number at epoch: 23716

The dashed part of the orbit path shows where the satellite is in the earth's shadow,  

DLR